Time,TemperatureF,DewpointF,PressureIn,WindDirection,WindDirectionDegrees,WindSpeedMPH,WindSpeedGustMPH,Humidity,HourlyPrecipIn,Conditions,Clouds,dailyrainin,SoftwareType,DateUTC
2013-02-13 00:01:00,46.0,20.0,-100.00,NNW,333,0.0,0.0,35,0.00,,,0.00,,2013-02-13 07:01:00,
2013-02-13 00:11:00,45.0,20.0,-100.00,NNW,333,0.0,0.0,36,0.00,,,0.00,,2013-02-13 07:11:00,
2013-02-13 00:21:00,45.0,20.0,-100.00,NNW,333,0.0,0.0,36,0.00,,,0.00,,2013-02-13 07:21:00,
2013-02-13 00:31:00,44.0,20.0,-100.00,NNW,333,0.0,0.0,38,0.00,,,0.00,,2013-02-13 07:31:00,
2013-02-13 00:41:00,43.0,19.0,-100.00,NNW,333,0.0,0.0,38,0.00,,,0.00,,2013-02-13 07:41:00,
2013-02-13 00:51:00,43.0,19.0,-100.00,NNW,333,0.0,0.0,38,0.00,,,0.00,,2013-02-13 07:51:00,
2013-02-13 01:01:00,42.0,19.0,-100.00,NNW,333,0.0,0.0,39,0.00,,,0.00,,2013-02-13 08:01:00,
2013-02-13 01:11:00,41.0,20.0,-100.00,NNW,333,0.0,0.0,42,0.00,,,0.00,,2013-02-13 08:11:00,
2013-02-13 01:21:00,41.0,20.0,-100.00,NNW,333,0.0,0.0,42,0.00,,,0.00,,2013-02-13 08:21:00,
2013-02-13 01:31:00,43.0,20.0,-100.00,NNW,333,0.0,0.0,39,0.00,,,0.00,,2013-02-13 08:31:00,
2013-02-13 01:42:00,43.0,20.0,-100.00,NNW,333,0.0,0.0,39,0.00,,,0.00,,2013-02-13 08:42:00,
2013-02-13 01:52:00,43.0,19.0,-100.00,NNW,333,0.0,0.0,38,0.00,,,0.00,,2013-02-13 08:52:00,
2013-02-13 02:01:00,43.0,19.0,-100.00,NNW,333,0.0,0.0,38,0.00,,,0.00,,2013-02-13 09:01:00,
2013-02-13 02:11:00,41.0,19.0,-100.00,NNW,333,0.0,0.0,40,0.00,,,0.00,,2013-02-13 09:11:00,
2013-02-13 02:21:00,41.0,19.0,-100.00,NNW,333,0.0,0.0,40,0.00,,,0.00,,2013-02-13 09:21:00,
2013-02-13 02:31:00,40.0,19.0,-100.00,NNW,333,0.0,0.0,43,0.00,,,0.00,,2013-02-13 09:31:00,
2013-02-13 02:41:00,40.0,19.0,-100.00,NNW,333,0.0,0.0,43,0.00,,,0.00,,2013-02-13 09:41:00,
2013-02-13 02:52:00,40.0,19.0,-100.00,NNW,333,0.0,0.0,43,0.00,,,0.00,,2013-02-13 09:52:00,
2013-02-13 03:01:00,41.0,20.0,-100.00,NNW,333,0.0,0.0,42,0.00,,,0.00,,2013-02-13 10:01:00,
2013-02-13 03:11:00,40.0,19.0,-100.00,NNW,333,0.0,0.0,42,0.00,,,0.00,,2013-02-13 10:11:00,
2013-02-13 03:21:00,40.0,19.0,-100.00,NNW,333,0.0,0.0,42,0.00,,,0.00,,2013-02-13 10:21:00,
2013-02-13 03:31:00,40.0,19.0,-100.00,NNW,333,0.0,0.0,42,0.00,,,0.00,,2013-02-13 10:31:00,
2013-02-13 03:41:00,40.0,19.0,-100.00,NNW,333,0.0,0.0,43,0.00,,,0.00,,2013-02-13 10:41:00,
2013-02-13 03:51:00,40.0,19.0,-100.00,NNW,333,0.0,0.0,43,0.00,,,0.00,,2013-02-13 10:51:00,
2013-02-13 04:01:00,39.0,19.0,-100.00,NNW,333,0.0,0.0,44,0.00,,,0.00,,2013-02-13 11:01:00,
2013-02-13 04:11:00,40.0,19.0,-100.00,NNW,333,0.0,0.0,43,0.00,,,0.00,,2013-02-13 11:11:00,
2013-02-13 04:22:00,40.0,19.0,-100.00,NNW,333,0.0,0.0,43,0.00,,,0.00,,2013-02-13 11:22:00,
2013-02-13 04:31:00,40.0,19.0,-100.00,NNW,333,0.0,0.0,43,0.00,,,0.00,,2013-02-13 11:31:00,
2013-02-13 04:41:00,40.0,19.0,-100.00,NNW,333,0.0,0.0,43,0.00,,,0.00,,2013-02-13 11:41:00,
2013-02-13 04:52:00,40.0,19.0,-100.00,NNW,333,0.0,0.0,43,0.00,,,0.00,,2013-02-13 11:52:00,
2013-02-13 05:02:00,40.0,20.0,-100.00,NNW,333,0.0,0.0,44,0.00,,,0.00,,2013-02-13 12:02:00,
2013-02-13 05:11:00,40.0,20.0,-100.00,NNW,333,0.0,0.0,44,0.00,,,0.00,,2013-02-13 12:11:00,
2013-02-13 05:21:00,40.0,20.0,-100.00,NNW,333,0.0,0.0,44,0.00,,,0.00,,2013-02-13 12:21:00,
2013-02-13 05:31:00,41.0,20.0,-100.00,NNW,333,0.0,0.0,42,0.00,,,0.00,,2013-02-13 12:31:00,
2013-02-13 05:42:00,42.0,19.0,-100.00,NNW,333,0.0,0.0,40,0.00,,,0.00,,2013-02-13 12:42:00,
2013-02-13 05:52:00,42.0,19.0,-100.00,NNW,333,0.0,0.0,40,0.00,,,0.00,,2013-02-13 12:52:00,
2013-02-13 06:02:00,44.0,20.0,-100.00,NNW,333,0.0,0.0,38,0.00,,,0.00,,2013-02-13 13:02:00,
2013-02-13 06:11:00,43.0,19.0,-100.00,NNW,333,0.0,0.0,38,0.00,,,0.00,,2013-02-13 13:11:00,
2013-02-13 06:21:00,43.0,19.0,-100.00,NNW,333,0.0,0.0,38,0.00,,,0.00,,2013-02-13 13:21:00,
2013-02-13 06:31:00,43.0,19.0,-100.00,NW,321,0.0,0.0,38,0.00,,,0.00,,2013-02-13 13:31:00,
2013-02-13 06:41:00,41.0,18.0,-100.00,NW,321,0.0,0.0,39,0.00,,,0.00,,2013-02-13 13:41:00,
2013-02-13 06:52:00,41.0,18.0,-100.00,NW,321,0.0,0.0,39,0.00,,,0.00,,2013-02-13 13:52:00,
2013-02-13 07:01:00,41.0,19.0,-100.00,NNE,24,0.0,0.0,41,0.00,,,0.00,,2013-02-13 14:01:00,
2013-02-13 07:11:00,39.0,18.0,-100.00,NNE,24,0.0,0.0,43,0.00,,,0.00,,2013-02-13 14:11:00,
2013-02-13 07:21:00,39.0,18.0,-100.00,NNE,24,0.0,0.0,43,0.00,,,0.00,,2013-02-13 14:21:00,
2013-02-13 07:31:00,39.0,19.0,-100.00,NNE,24,0.0,0.0,44,0.00,,,0.00,,2013-02-13 14:31:00,
2013-02-13 07:41:00,41.0,20.0,-100.00,NNE,24,0.0,0.0,43,0.00,,,0.00,,2013-02-13 14:41:00,
2013-02-13 07:52:00,41.0,20.0,-100.00,NNE,24,0.0,0.0,43,0.00,,,0.00,,2013-02-13 14:52:00,
2013-02-13 08:01:00,41.0,19.0,-100.00,NNE,24,0.0,0.0,41,0.00,,,0.00,,2013-02-13 15:01:00,
2013-02-13 08:11:00,43.0,20.0,-100.00,NNE,24,0.0,0.0,40,0.00,,,0.00,,2013-02-13 15:11:00,
2013-02-13 08:21:00,43.0,20.0,-100.00,NNE,24,0.0,0.0,40,0.00,,,0.00,,2013-02-13 15:21:00,
2013-02-13 08:31:00,46.0,22.0,-100.00,NNW,332,0.0,0.0,38,0.00,,,0.00,,2013-02-13 15:31:00,
2013-02-13 08:41:00,46.0,22.0,-100.00,NNW,332,0.0,0.0,38,0.00,,,0.00,,2013-02-13 15:41:00,
2013-02-13 08:52:00,49.0,22.0,-100.00,NNE,15,0.0,0.0,34,0.00,,,0.00,,2013-02-13 15:52:00,
2013-02-13 09:01:00,52.0,23.0,-100.00,NNW,328,0.0,0.0,32,0.00,,,0.00,,2013-02-13 16:01:00,
2013-02-13 09:11:00,53.0,23.0,-100.00,WNW,283,0.0,0.0,31,0.00,,,0.00,,2013-02-13 16:11:00,
2013-02-13 09:21:00,53.0,23.0,-100.00,WNW,283,0.0,0.0,31,0.00,,,0.00,,2013-02-13 16:21:00,
2013-02-13 09:31:00,55.0,23.0,-100.00,NNW,330,2.0,2.0,29,0.00,,,0.00,,2013-02-13 16:31:00,
2013-02-13 09:41:00,55.0,23.0,-100.00,NNW,330,2.0,2.0,29,0.00,,,0.00,,2013-02-13 16:41:00,
2013-02-13 09:52:00,54.0,22.0,-100.00,NW,307,3.0,3.0,28,0.00,,,0.00,,2013-02-13 16:52:00,
2013-02-13 10:01:00,56.0,23.0,-100.00,NW,318,1.0,3.0,28,0.00,,,0.00,,2013-02-13 17:01:00,
2013-02-13 10:11:00,57.0,22.0,-100.00,NW,318,4.0,4.0,26,0.00,,,0.00,,2013-02-13 17:11:00,
2013-02-13 10:21:00,57.0,22.0,-100.00,NW,318,4.0,4.0,26,0.00,,,0.00,,2013-02-13 17:21:00,
2013-02-13 10:31:00,58.0,22.0,-100.00,NNW,333,4.0,4.0,25,0.00,,,0.00,,2013-02-13 17:31:00,
2013-02-13 10:41:00,58.0,22.0,-100.00,NNW,333,4.0,4.0,25,0.00,,,0.00,,2013-02-13 17:41:00,
2013-02-13 10:52:00,60.0,22.0,-100.00,SW,214,3.0,3.0,23,0.00,,,0.00,,2013-02-13 17:52:00,
2013-02-13 11:01:00,60.0,21.0,-100.00,NW,323,4.0,5.0,22,0.00,,,0.00,,2013-02-13 18:01:00,
2013-02-13 11:11:00,61.0,22.0,-100.00,WNW,298,5.0,5.0,22,0.00,,,0.00,,2013-02-13 18:11:00,
2013-02-13 11:22:00,61.0,22.0,-100.00,WNW,298,5.0,5.0,22,0.00,,,0.00,,2013-02-13 18:22:00,
2013-02-13 11:31:00,62.0,23.0,-100.00,WNW,291,5.0,5.0,22,0.00,,,0.00,,2013-02-13 18:31:00,
2013-02-13 11:41:00,62.0,23.0,-100.00,WNW,291,5.0,5.0,22,0.00,,,0.00,,2013-02-13 18:41:00,
2013-02-13 11:51:00,62.0,22.0,-100.00,NNW,330,5.0,7.0,21,0.00,,,0.00,,2013-02-13 18:51:00,
2013-02-13 12:01:00,64.0,23.0,-100.00,NW,305,7.0,8.0,21,0.00,,,0.00,,2013-02-13 19:01:00,
2013-02-13 12:11:00,65.0,23.0,-100.00,NW,316,6.0,6.0,20,0.00,,,0.00,,2013-02-13 19:11:00,
2013-02-13 12:21:00,65.0,23.0,-100.00,NW,316,6.0,6.0,20,0.00,,,0.00,,2013-02-13 19:21:00,
2013-02-13 12:31:00,65.0,22.0,-100.00,NNW,342,4.0,4.0,19,0.00,,,0.00,,2013-02-13 19:31:00,
2013-02-13 12:41:00,65.0,22.0,-100.00,NNW,342,4.0,4.0,19,0.00,,,0.00,,2013-02-13 19:41:00,
2013-02-13 12:51:00,66.0,23.0,-100.00,NW,322,1.0,0.0,19,0.00,,,0.00,,2013-02-13 19:51:00,
2013-02-13 13:01:00,67.0,22.0,-100.00,SW,229,5.0,7.0,18,0.00,,,0.00,,2013-02-13 20:01:00,
2013-02-13 13:11:00,67.0,21.0,-100.00,NW,321,10.0,16.0,17,0.00,,,0.00,,2013-02-13 20:11:00,
2013-02-13 13:21:00,67.0,21.0,-100.00,NW,321,10.0,16.0,17,0.00,,,0.00,,2013-02-13 20:21:00,
2013-02-13 13:31:00,67.0,21.0,-100.00,NNW,330,11.0,11.0,17,0.00,,,0.00,,2013-02-13 20:31:00,
2013-02-13 13:41:00,68.0,22.0,-100.00,NW,326,5.0,7.0,17,0.00,,,0.00,,2013-02-13 20:41:00,
2013-02-13 13:51:00,68.0,22.0,-100.00,NW,326,5.0,7.0,17,0.00,,,0.00,,2013-02-13 20:51:00,
2013-02-13 14:01:00,68.0,22.0,-100.00,NW,326,8.0,8.0,17,0.00,,,0.00,,2013-02-13 21:01:00,
2013-02-13 14:11:00,69.0,22.0,-100.00,WNW,294,7.0,7.0,17,0.00,,,0.00,,2013-02-13 21:11:00,
2013-02-13 14:21:00,69.0,22.0,-100.00,WNW,294,7.0,7.0,17,0.00,,,0.00,,2013-02-13 21:21:00,
2013-02-13 14:31:00,69.0,22.0,-100.00,NW,307,6.0,6.0,17,0.00,,,0.00,,2013-02-13 21:31:00,
2013-02-13 14:42:00,70.0,23.0,-100.00,NW,319,4.0,5.0,17,0.00,,,0.00,,2013-02-13 21:42:00,
2013-02-13 14:52:00,70.0,23.0,-100.00,NW,319,4.0,5.0,17,0.00,,,0.00,,2013-02-13 21:52:00,
2013-02-13 15:01:00,70.0,22.0,-100.00,NNW,336,10.0,10.0,16,0.00,,,0.00,,2013-02-13 22:01:00,
2013-02-13 15:11:00,70.0,23.0,-100.00,NW,325,9.0,9.0,17,0.00,,,0.00,,2013-02-13 22:11:00,
2013-02-13 15:21:00,70.0,23.0,-100.00,NW,325,9.0,9.0,17,0.00,,,0.00,,2013-02-13 22:21:00,
2013-02-13 15:31:00,69.0,22.0,-100.00,NW,315,10.0,10.0,17,0.00,,,0.00,,2013-02-13 22:31:00,
2013-02-13 15:41:00,69.0,22.0,-100.00,NW,315,10.0,10.0,17,0.00,,,0.00,,2013-02-13 22:41:00,
2013-02-13 15:51:00,69.0,22.0,-100.00,NW,319,10.0,10.0,17,0.00,,,0.00,,2013-02-13 22:51:00,
2013-02-13 16:01:00,69.0,22.0,-100.00,NW,304,8.0,8.0,17,0.00,,,0.00,,2013-02-13 23:01:00,
2013-02-13 16:11:00,69.0,24.0,-100.00,WNW,301,6.0,10.0,18,0.00,,,0.00,,2013-02-13 23:11:00,
2013-02-13 16:21:00,69.0,24.0,-100.00,WNW,301,6.0,10.0,18,0.00,,,0.00,,2013-02-13 23:21:00,
2013-02-13 16:31:00,69.0,24.0,-100.00,WSW,238,5.0,5.0,18,0.00,,,0.00,,2013-02-13 23:31:00,
2013-02-13 16:41:00,69.0,24.0,-100.00,WSW,238,5.0,5.0,18,0.00,,,0.00,,2013-02-13 23:41:00,
2013-02-13 16:52:00,69.0,24.0,-100.00,North,350,9.0,9.0,18,0.00,,,0.00,,2013-02-13 23:52:00,
2013-02-13 17:01:00,68.0,24.0,-100.00,NW,309,4.0,4.0,19,0.00,,,0.00,,2013-02-14 00:01:00,
2013-02-13 17:11:00,68.0,24.0,-100.00,NW,309,4.0,4.0,19,0.00,,,0.00,,2013-02-14 00:11:00,
2013-02-13 17:21:00,68.0,24.0,-100.00,NNW,343,3.0,4.0,19,0.00,,,0.00,,2013-02-14 00:21:00,
2013-02-13 17:31:00,68.0,24.0,-100.00,NW,319,7.0,14.0,19,0.00,,,0.00,,2013-02-14 00:31:00,
2013-02-13 17:41:00,68.0,24.0,-100.00,NW,319,7.0,14.0,19,0.00,,,0.00,,2013-02-14 00:41:00,
2013-02-13 17:52:00,67.0,23.0,-100.00,WNW,288,4.0,6.0,19,0.00,,,0.00,,2013-02-14 00:52:00,
2013-02-13 18:01:00,67.0,25.0,-100.00,North,350,6.0,6.0,20,0.00,,,0.00,,2013-02-14 01:01:00,
2013-02-13 18:11:00,66.0,24.0,-100.00,NW,325,5.0,7.0,20,0.00,,,0.00,,2013-02-14 01:11:00,
2013-02-13 18:21:00,66.0,24.0,-100.00,NW,325,5.0,7.0,20,0.00,,,0.00,,2013-02-14 01:21:00,
2013-02-13 18:31:00,66.0,25.0,-100.00,NNW,332,3.0,4.0,21,0.00,,,0.00,,2013-02-14 01:31:00,
2013-02-13 18:41:00,66.0,25.0,-100.00,NNW,332,3.0,4.0,21,0.00,,,0.00,,2013-02-14 01:41:00,
2013-02-13 18:51:00,65.0,25.0,-100.00,NW,322,2.0,2.0,22,0.00,,,0.00,,2013-02-14 01:51:00,
2013-02-13 19:01:00,63.0,25.0,-100.00,NNW,330,0.0,0.0,23,0.00,,,0.00,,2013-02-14 02:01:00,
2013-02-13 19:11:00,62.0,26.0,-100.00,WNW,300,0.0,0.0,25,0.00,,,0.00,,2013-02-14 02:11:00,
2013-02-13 19:21:00,62.0,26.0,-100.00,WNW,300,0.0,0.0,25,0.00,,,0.00,,2013-02-14 02:21:00,
2013-02-13 19:31:00,61.0,26.0,-100.00,WNW,300,0.0,0.0,26,0.00,,,0.00,,2013-02-14 02:31:00,
2013-02-13 19:41:00,61.0,26.0,-100.00,WNW,300,0.0,0.0,26,0.00,,,0.00,,2013-02-14 02:41:00,
2013-02-13 19:51:00,61.0,26.0,-100.00,WNW,300,0.0,0.0,26,0.00,,,0.00,,2013-02-14 02:51:00,
2013-02-13 20:02:00,60.0,26.0,-100.00,NNW,342,0.0,0.0,27,0.00,,,0.00,,2013-02-14 03:02:00,
2013-02-13 20:11:00,58.0,26.0,-100.00,NNW,342,0.0,0.0,29,0.00,,,0.00,,2013-02-14 03:11:00,
2013-02-13 20:21:00,58.0,26.0,-100.00,NNW,342,0.0,0.0,29,0.00,,,0.00,,2013-02-14 03:21:00,
2013-02-13 20:31:00,57.0,26.0,-100.00,NNW,342,0.0,0.0,30,0.00,,,0.00,,2013-02-14 03:31:00,
2013-02-13 20:42:00,57.0,26.0,-100.00,NNW,342,0.0,0.0,30,0.00,,,0.00,,2013-02-14 03:42:00,
2013-02-13 20:52:00,57.0,26.0,-100.00,NNW,342,0.0,0.0,30,0.00,,,0.00,,2013-02-14 03:52:00,
2013-02-13 21:01:00,56.0,26.0,-100.00,NNW,342,0.0,0.0,31,0.00,,,0.00,,2013-02-14 04:01:00,
2013-02-13 21:11:00,56.0,27.0,-100.00,NNW,342,0.0,0.0,32,0.00,,,0.00,,2013-02-14 04:11:00,
2013-02-13 21:21:00,56.0,27.0,-100.00,NNW,342,0.0,0.0,32,0.00,,,0.00,,2013-02-14 04:21:00,
2013-02-13 21:31:00,55.0,26.0,-100.00,NNW,342,0.0,0.0,33,0.00,,,0.00,,2013-02-14 04:31:00,
2013-02-13 21:41:00,55.0,26.0,-100.00,NNW,342,0.0,0.0,33,0.00,,,0.00,,2013-02-14 04:41:00,
2013-02-13 21:51:00,54.0,26.0,-100.00,NNW,342,0.0,0.0,33,0.00,,,0.00,,2013-02-14 04:51:00,
2013-02-13 22:01:00,54.0,26.0,-100.00,NNW,342,0.0,0.0,34,0.00,,,0.00,,2013-02-14 05:01:00,
2013-02-13 22:11:00,54.0,26.0,-100.00,NNW,342,0.0,0.0,34,0.00,,,0.00,,2013-02-14 05:11:00,
2013-02-13 22:21:00,53.0,27.0,-100.00,NNW,342,0.0,0.0,36,0.00,,,0.00,,2013-02-14 05:21:00,
2013-02-13 22:31:00,53.0,27.0,-100.00,NNW,342,0.0,0.0,36,0.00,,,0.00,,2013-02-14 05:31:00,
2013-02-13 22:41:00,53.0,27.0,-100.00,NNW,342,0.0,0.0,36,0.00,,,0.00,,2013-02-14 05:41:00,
2013-02-13 22:52:00,51.0,28.0,-100.00,ESE,105,0.0,1.0,40,0.00,,,0.00,,2013-02-14 05:52:00,
2013-02-13 23:01:00,51.0,27.0,-100.00,South,170,0.0,0.0,39,0.00,,,0.00,,2013-02-14 06:01:00,
2013-02-13 23:11:00,51.0,28.0,-100.00,South,170,0.0,0.0,40,0.00,,,0.00,,2013-02-14 06:11:00,
2013-02-13 23:21:00,51.0,28.0,-100.00,South,170,0.0,0.0,40,0.00,,,0.00,,2013-02-14 06:21:00,
2013-02-13 23:31:00,52.0,27.0,-100.00,South,170,0.0,0.0,38,0.00,,,0.00,,2013-02-14 06:31:00,
2013-02-13 23:41:00,52.0,27.0,-100.00,South,170,0.0,0.0,38,0.00,,,0.00,,2013-02-14 06:41:00,
2013-02-13 23:51:00,52.0,27.0,-100.00,South,170,0.0,0.0,38,0.00,,,0.00,,2013-02-14 06:51:00,